[[{"header":{"parameterUnit":"m.s-1","parameterCategory":1,"la1":30.2991,"la2":30.254,"lo1":-89.0895,"lo2":-89.0444,"dy":0.0017,"dx":0.0017,"nx":28,"ny":28,"refTime":"2026-01-08T03:00:00:Z","depth":0,"parameterNumber":2,"parameterNumberName":"U-component_of_WINDS"},"data":[0,0,0,0,0,0,0,0,0,0,0,0,0,0,0,0,0,0,0,0,0,0,0,0,0,0,0,0,0,0,0,0,0,0,0,0,0,0,0,0,0,0,0,0,0,0,0,0,0,0,0,0,0,0,0,0,0,0,-0.4772,-0.4773,0,-0.4856,-0.4856,-0.4857,-0.4924,-0.4925,-0.4926,-0.4926,-0.5015,-0.5016,-0.5018,0,0,0,0,0,0,0,0,0,0,0,0,0,-0.4674,-0.4675,-0.4772,-0.4773,-0.4774,-0.4855,-0.4857,-0.4858,-0.4924,-0.4925,-0.4926,-0.4927,-0.5014,-0.5016,-0.5018,0,0,0,0,0,0,0,0,0,0,0,0,0,-0.4733,-0.4676,-0.4772,-0.4817,-0.4822,-0.4855,-0.4857,-0.4858,-0.4924,-0.4925,-0.4926,-0.4927,-0.5013,-0.5016,-0.5019,-0.5014,0,0,-0.5026,-0.5028,0,0,0,0,0,0,0,0,-0.4729,-0.4736,-0.481,-0.4814,-0.482,-0.4881,-0.4854,-0.491,-0.4924,-0.4886,-0.4926,-0.4928,-0.4969,-0.4976,-0.4989,-0.5018,-0.5022,-0.5027,-0.5028,-0.5029,-0.503,0,0,0,0,0,0,0,-0.4725,-0.4733,-0.4805,-0.4811,-0.4817,-0.4834,-0.4844,-0.4865,-0.4921,-0.4889,-0.4894,-0.4903,-0.4972,-0.4987,-0.4992,-0.5023,-0.5027,-0.5029,-0.503,-0.5031,-0.5053,-0.5052,0,0,0,0,0,0,-0.4714,-0.4729,-0.4803,-0.4808,-0.4776,-0.4835,-0.4846,-0.486,-0.4921,-0.4931,-0.4902,-0.4906,-0.4982,-0.4989,-0.4995,-0.4994,-0.5029,-0.5032,-0.5033,-0.5054,-0.5053,-0.5052,0,0,0,0,0,0,-0.4711,-0.472,-0.4799,-0.477,-0.4781,-0.4836,-0.4851,-0.4861,-0.4875,-0.4931,-0.4941,-0.4906,-0.4983,-0.4992,-0.5009,-0.4998,-0.5033,-0.5035,-0.5055,-0.5054,-0.5052,-0.4991,0,0,0,0,0,0,-0.4708,-0.4718,-0.4717,-0.4769,-0.4783,-0.481,-0.4851,-0.4862,-0.4879,-0.4885,-0.4937,-0.4947,-0.4984,-0.5004,-0.5011,-0.5002,-0.5037,-0.5056,-0.5055,-0.5053,-0.4994,-0.4987,-0.4981,0,0,0,0,0,-0.4705,-0.4697,-0.4716,-0.4725,-0.4782,-0.481,-0.4817,-0.486,-0.4878,-0.4877,-0.4913,-0.4945,-0.4998,-0.5006,-0.5014,-0.5005,-0.5057,-0.5055,-0.5053,-0.4997,-0.4988,-0.4982,0,0,0,0,0,0,-0.4643,-0.4705,-0.4727,-0.4736,-0.4767,-0.4821,-0.4821,-0.485,-0.4877,-0.4882,-0.4934,-0.4945,-0.4957,-0.4983,-0.4991,-0.5004,-0.5032,-0.5031,-0.4986,-0.4979,-0.4973,-0.4966,-0.5039,0,0,0,0,0,-0.463,-0.4646,-0.47,-0.4703,-0.4717,-0.4766,-0.478,-0.481,-0.4845,-0.4858,-0.4895,-0.4928,-0.4953,-0.4967,-0.4993,-0.4998,-0.5011,-0.4996,-0.499,-0.4985,-0.4983,-0.4988,-0.4982,-0.5045,-0.5045,-0.5045,0,0,-0.4604,-0.464,-0.4647,-0.4691,-0.4719,-0.4735,-0.4777,-0.4793,-0.4806,-0.4861,-0.4879,-0.4907,-0.4948,-0.4959,-0.4966,-0.4981,-0.4969,-0.4982,-0.4977,-0.4979,-0.4985,-0.4979,-0.4974,-0.5043,-0.5043,-0.5044,0,0,-0.4565,-0.4594,-0.4599,-0.4625,-0.4666,-0.4698,-0.4699,-0.4749,-0.4769,-0.4788,-0.483,-0.4847,-0.4887,-0.4914,-0.4933,-0.4904,-0.4935,-0.4911,-0.4879,-0.4882,-0.4877,-0.4873,-0.4862,-0.4858,-0.491,-0.4909,-0.4909,0,-0.4527,-0.4553,-0.4598,-0.4611,-0.4629,-0.4679,-0.4684,-0.4709,-0.4756,-0.4767,-0.4784,-0.4835,-0.4866,-0.4884,-0.4877,-0.4891,-0.4894,-0.4905,-0.4874,-0.4871,-0.4868,-0.4858,-0.4853,-0.4906,-0.4907,-0.4907,-0.4907,0,-0.4505,-0.4523,-0.4522,-0.4565,-0.4583,-0.4592,-0.4639,-0.4652,-0.4681,-0.4712,-0.473,-0.4769,-0.4803,-0.4809,-0.4838,-0.4831,-0.4839,-0.4864,-0.4893,-0.4857,-0.4849,-0.4846,-0.4902,-0.4903,-0.4904,-0.4905,0,0,-0.443,-0.4496,-0.4495,-0.4515,-0.4563,-0.4578,-0.459,-0.4622,-0.4632,-0.4663,-0.4675,-0.4707,-0.4731,-0.4752,-0.4784,-0.4787,-0.4761,-0.4812,-0.4814,-0.4801,-0.4756,-0.4736,-0.4731,-0.4782,-0.4781,-0.4781,-0.4752,0,-0.4398,-0.442,-0.4461,-0.4471,-0.4487,-0.4534,-0.4545,-0.4576,-0.4605,-0.4624,-0.4658,-0.468,-0.4709,-0.4722,-0.4728,-0.4763,-0.4753,-0.4766,-0.4794,-0.4794,-0.4781,-0.4727,-0.4706,-0.4677,-0.4749,-0.4749,-0.4748,0,-0.4364,-0.439,-0.4402,-0.4448,-0.4457,-0.4465,-0.4497,-0.4515,-0.4551,-0.4572,-0.4596,-0.463,-0.4646,-0.4673,-0.4695,-0.4703,-0.4717,-0.4736,-0.4736,-0.474,-0.4768,-0.4729,-0.4669,-0.4664,-0.4744,-0.4744,-0.4745,0,-0.4307,-0.4346,-0.4357,-0.4373,-0.4427,-0.4432,-0.4455,-0.4493,-0.4509,-0.4538,-0.4549,-0.4579,-0.4596,-0.4619,-0.4661,-0.4677,-0.4679,-0.471,-0.4698,-0.4696,-0.4696,-0.4695,-0.4637,-0.4705,-0.4705,-0.4706,-0.4706,0,-0.4267,-0.4272,-0.4332,-0.4339,-0.4346,-0.4392,-0.4398,-0.4426,-0.4459,-0.4473,-0.4516,-0.4529,-0.4584,-0.4603,-0.4636,-0.465,-0.4657,-0.4675,-0.4684,-0.4671,-0.4668,-0.468,-0.4683,-0.4704,-0.4705,-0.4705,-0.4705,0,-0.4204,-0.4245,-0.426,-0.431,-0.4323,-0.4326,-0.4369,-0.4378,-0.441,-0.4427,-0.4433,-0.4483,-0.4508,-0.4552,-0.459,-0.4613,-0.4619,-0.4634,-0.4606,-0.4611,-0.4597,-0.4597,-0.4543,-0.4539,-0.461,-0.461,-0.4609,0,-0.4176,-0.418,-0.423,-0.4242,-0.4263,-0.4281,-0.4298,-0.4344,-0.436,-0.4401,-0.4405,-0.4433,-0.4457,-0.4494,-0.4535,-0.4564,-0.458,-0.4559,-0.4585,-0.4571,-0.4579,-0.4578,-0.4579,-0.4553,-0.4552,-0.4551,-0.4551,0,-0.4121,-0.414,-0.4162,-0.4189,-0.4207,-0.4232,-0.4259,-0.4267,-0.432,-0.4335,-0.436,-0.4378,-0.4416,-0.4443,-0.4478,-0.4503,-0.4536,-0.4542,-0.4541,-0.4528,-0.4511,-0.4519,-0.4589,-0.4543,-0.4544,-0.4545,-0.4545,-0.4545,-0.4074,-0.408,-0.4116,-0.4138,-0.4163,-0.4187,-0.4197,-0.423,-0.4251,-0.4284,-0.431,-0.4333,-0.437,-0.4419,-0.4442,-0.4462,-0.4477,-0.4475,-0.4475,-0.4473,-0.4468,-0.4508,-0.4468,-0.4469,-0.4469,-0.4469,-0.4469,0,-0.4021,-0.4046,-0.4066,-0.4101,-0.4119,-0.4147,-0.4178,-0.4191,-0.421,-0.4241,-0.4263,-0.4292,-0.4318,-0.436,-0.439,-0.4397,-0.4413,-0.4403,-0.4403,-0.4408,-0.4453,-0.445,-0.439,-0.439,-0.439,-0.439,-0.439,-0.439,-0.3995,-0.4007,-0.403,-0.4054,-0.408,-0.4101,-0.4116,-0.4139,-0.4164,-0.4193,-0.4214,-0.4241,-0.4276,-0.4309,-0.4334,-0.4346,-0.4355,-0.4341,-0.4357,-0.4398,-0.4405,-0.4412,-0.441,-0.4342,-0.4342,-0.4311,-0.4311,-0.4311]},{"header":{"parameterUnit":"m.s-1","parameterCategory":1,"la1":30.2991,"la2":30.254,"lo1":-89.0895,"lo2":-89.0444,"dy":0.0017,"dx":0.0017,"nx":28,"ny":28,"refTime":"2026-01-08T03:00:00:Z","depth":0,"parameterNumber":3,"parameterNumberName":"V-component_of_WINDS"},"data":[0,0,0,0,0,0,0,0,0,0,0,0,0,0,0,0,0,0,0,0,0,0,0,0,0,0,0,0,0,0,0,0,0,0,0,0,0,0,0,0,0,0,0,0,0,0,0,0,0,0,0,0,0,0,0,0,0,0,5.0945,5.0947,0,5.1127,5.1129,5.1131,5.1141,5.1139,5.1137,5.1135,5.1319,5.1326,5.1333,0,0,0,0,0,0,0,0,0,0,0,0,0,5.0606,5.0612,5.0945,5.0947,5.095,5.1127,5.1129,5.1132,5.1141,5.1139,5.1136,5.1134,5.1317,5.1325,5.1333,0,0,0,0,0,0,0,0,0,0,0,0,0,5.0767,5.0614,5.0945,5.0976,5.0981,5.1126,5.1129,5.1132,5.1142,5.1139,5.1136,5.1133,5.1314,5.1324,5.1334,5.1461,0,0,5.1366,5.137,0,0,0,0,0,0,0,0,5.0758,5.0779,5.0969,5.0974,5.0979,5.1108,5.1077,5.1242,5.1143,5.1081,5.1135,5.1131,5.1251,5.1267,5.1308,5.1469,5.1477,5.1367,5.1373,5.1377,5.138,0,0,0,0,0,0,0,5.0747,5.0772,5.1017,5.0972,5.0978,5.0981,5.1,5.1109,5.1181,5.1086,5.1087,5.1108,5.1254,5.1298,5.1312,5.148,5.1366,5.1375,5.1382,5.1386,5.1758,5.1761,0,0,0,0,0,0,5.073,5.0762,5.1011,5.1022,5.0859,5.0989,5.1011,5.107,5.118,5.1194,5.1111,5.1108,5.1282,5.13,5.1318,5.1477,5.1377,5.1387,5.1393,5.1754,5.1758,5.1762,0,0,0,0,0,0,5.0722,5.0752,5.1004,5.0893,5.0925,5.0999,5.1065,5.1075,5.1119,5.1199,5.1212,5.1143,5.128,5.1304,5.1426,5.1483,5.1391,5.1401,5.1749,5.1755,5.176,5.1792,0,0,0,0,0,0,5.0712,5.0749,5.0798,5.0894,5.0931,5.1109,5.1068,5.1081,5.1137,5.1136,5.1232,5.1245,5.1279,5.1411,5.1436,5.1495,5.1409,5.1745,5.1752,5.1759,5.1786,5.1797,5.1807,0,0,0,0,0,5.07,5.0798,5.08,5.083,5.0994,5.1112,5.1133,5.1171,5.1142,5.1192,5.1243,5.1242,5.1472,5.1423,5.1452,5.1515,5.1741,5.175,5.1758,5.1781,5.1795,5.1807,0,0,0,0,0,0,5.0705,5.0811,5.0815,5.0946,5.102,5.1113,5.1177,5.1184,5.1267,5.1262,5.1304,5.1326,5.1448,5.1493,5.1437,5.1645,5.1603,5.1618,5.1611,5.1625,5.1636,5.1623,5.1417,0,0,0,0,0,5.0722,5.081,5.0897,5.1005,5.1042,5.1103,5.1156,5.1179,5.1257,5.1288,5.1348,5.1424,5.1513,5.1571,5.1657,5.1792,5.1814,5.1849,5.186,5.1869,5.1881,5.1959,5.1976,5.179,5.179,5.179,0,0,5.0757,5.0825,5.0878,5.1008,5.1068,5.1158,5.113,5.1225,5.1293,5.1302,5.1423,5.1469,5.1556,5.1686,5.1746,5.1728,5.1938,5.1879,5.1885,5.1894,5.1969,5.1987,5.2003,5.1795,5.1794,5.1793,0,0,5.0867,5.0927,5.1025,5.1087,5.1178,5.1219,5.1242,5.1335,5.1367,5.1489,5.1498,5.1579,5.1731,5.1794,5.1846,5.1982,5.1986,5.2009,5.2066,5.2141,5.2156,5.217,5.2221,5.2239,5.2021,5.2021,5.2021,0,5.0899,5.1037,5.1074,5.1172,5.123,5.1243,5.1344,5.1401,5.1515,5.1555,5.1533,5.1727,5.1785,5.1932,5.1965,5.2006,5.2035,5.1999,5.2151,5.2165,5.2178,5.2228,5.2247,5.2023,5.2023,5.2023,5.2023,0,5.1073,5.1168,5.1236,5.1349,5.1414,5.1512,5.1565,5.1626,5.1644,5.1687,5.1811,5.1883,5.1986,5.2021,5.2038,5.2171,5.2157,5.2142,5.2102,5.2198,5.2245,5.2265,5.2027,5.2026,5.2025,5.2025,0,0,5.1192,5.1326,5.1351,5.1404,5.1506,5.1581,5.168,5.1782,5.1835,5.1913,5.1999,5.2128,5.2117,5.2175,5.2199,5.2265,5.2372,5.2243,5.2245,5.2267,5.2527,5.2539,5.2561,5.2374,5.2378,5.2381,5.2521,0,5.1316,5.1495,5.1533,5.1687,5.1777,5.1791,5.1878,5.1951,5.1994,5.2076,5.2123,5.2216,5.2191,5.2228,5.2293,5.2345,5.2426,5.2335,5.2456,5.246,5.2437,5.2585,5.2599,5.2727,5.2539,5.2542,5.2544,0,5.1485,5.1571,5.1735,5.1829,5.1868,5.1945,5.2043,5.2121,5.2204,5.2231,5.2298,5.2315,5.242,5.2373,5.2519,5.2457,5.2509,5.2542,5.2548,5.2563,5.251,5.2607,5.2768,5.2789,5.2574,5.2571,5.2569,0,5.156,5.1715,5.1835,5.1879,5.199,5.2045,5.2094,5.2174,5.2234,5.2319,5.2358,5.2453,5.2506,5.258,5.2623,5.2585,5.2767,5.2723,5.2794,5.2793,5.2834,5.2831,5.3009,5.2862,5.2861,5.2861,5.2861,0,5.1697,5.1797,5.187,5.1944,5.2057,5.21,5.2211,5.2259,5.2331,5.2415,5.2431,5.2509,5.2561,5.2646,5.268,5.2798,5.282,5.2846,5.2855,5.2847,5.2844,5.2883,5.2876,5.2866,5.2865,5.2864,5.2863,0,5.18,5.1853,5.1984,5.208,5.2106,5.2186,5.2268,5.234,5.2384,5.249,5.2517,5.2585,5.2687,5.2737,5.2862,5.2886,5.302,5.3021,5.2993,5.2997,5.3066,5.306,5.3277,5.3309,5.3138,5.3139,5.314,0,5.1886,5.1964,5.2069,5.2127,5.2178,5.227,5.2332,5.2377,5.244,5.2543,5.2603,5.2706,5.2791,5.2953,5.3014,5.3111,5.3116,5.3186,5.3131,5.3122,5.3122,5.3118,5.3127,5.3196,5.3198,5.3199,5.32,0,5.2032,5.2055,5.2144,5.2243,5.2317,5.2396,5.2475,5.2521,5.2579,5.2649,5.2755,5.2821,5.2951,5.3053,5.3155,5.3205,5.3214,5.3217,5.3239,5.3233,5.3215,5.323,5.3023,5.3212,5.3211,5.321,5.3209,5.3209,5.2132,5.2203,5.2289,5.2389,5.2453,5.2526,5.26,5.2654,5.2742,5.2853,5.2873,5.2986,5.3069,5.3207,5.3261,5.335,5.3334,5.3365,5.3374,5.3382,5.3388,5.3198,5.3368,5.3367,5.3367,5.3367,5.3367,0,5.2283,5.2339,5.243,5.254,5.2619,5.262,5.2707,5.2773,5.2872,5.2949,5.3034,5.3156,5.3256,5.3325,5.3427,5.3486,5.3492,5.3511,5.3509,5.3521,5.3393,5.3366,5.3504,5.3504,5.3504,5.3504,5.3504,5.3504,5.2371,5.2493,5.2526,5.2681,5.2736,5.2848,5.2898,5.2967,5.3029,5.3165,5.325,5.3294,5.3369,5.3477,5.357,5.3588,5.3626,5.3646,5.3664,5.3544,5.353,5.3516,5.349,5.3653,5.3653,5.3785,5.3786,5.3787]}]]